Tracking 31033 objects as of 15-Jul-2025
HD Live streaming from Space Station
objects crossing your sky now

COSMOS 2535 DEB

Track COSMOS 2535 DEB now!
10-day predictions


NORAD ID: 44640
Int'l Code: 2019-039L
Perigee: 599.7 km
Apogee: 686.6 km
Inclination: 97.7 °
Period: 97.4 minutes
Semi major axis: 7014 km
RCS: Unknown
Launch date: July 10, 2019
Source: Commonwealth of Independent States (former USSR) (CIS)
Launch site: PLESETSK MISSILE AND SPACE COMPLEX (PKMTR)

Note: This is SATELLITE DEBRIS
Your satellite tracking list
Your tracking list is empty




NASA's NSSDC Master Catalog

Two Line Element Set (TLE):
1 44640U 19039L   25194.74095029  .00001070  00000-0  15099-3 0  9992
2 44640  97.7322 186.5315 0061967  93.7378 267.0921 14.77877249310473
Source of the keplerian elements: AFSPC